Time,TemperatureF,DewpointF,PressureIn,WindDirection,WindDirectionDegrees,WindSpeedMPH,WindSpeedGustMPH,Humidity,HourlyPrecipIn,Conditions,Clouds,dailyrainin,SoftwareType,DateUTC
2013-01-30 00:02:00,68.0,-99.9,29.87,SSE,164,16.0,19.0,-999,-99.99,,,-99.99,,2013-01-30 06:02:00,
2013-01-30 00:12:00,68.0,-99.9,29.87,SSE,164,16.0,19.0,-999,-99.99,,,-99.99,,2013-01-30 06:12:00,
2013-01-30 00:22:00,68.0,-99.9,29.86,SSE,167,17.0,19.0,-999,-99.99,,,-99.99,,2013-01-30 06:22:00,
2013-01-30 00:32:00,68.0,-99.9,29.85,SSE,162,18.0,22.0,-999,-99.99,,,-99.99,,2013-01-30 06:32:00,
2013-01-30 00:42:00,68.0,-99.9,29.85,SSE,164,18.0,21.0,-999,-99.99,,,-99.99,,2013-01-30 06:42:00,
2013-01-30 00:52:00,68.0,-99.9,29.85,SSE,166,20.0,22.0,-999,-99.99,,,-99.99,,2013-01-30 06:52:00,
2013-01-30 01:02:00,68.0,-99.9,29.85,SSE,163,19.0,22.0,-999,-99.99,,,-99.99,,2013-01-30 07:02:00,
2013-01-30 01:12:00,68.0,-99.9,29.84,SSE,163,19.0,24.0,-999,-99.99,,,-99.99,,2013-01-30 07:12:00,
2013-01-30 01:22:00,68.0,-99.9,29.83,SSE,162,20.0,24.0,-999,-99.99,,,-99.99,,2013-01-30 07:22:00,
2013-01-30 01:32:00,68.0,-99.9,29.83,SSE,164,20.0,24.0,-999,-99.99,,,-99.99,,2013-01-30 07:32:00,
2013-01-30 01:42:00,68.0,-99.9,29.83,SSE,164,19.0,23.0,-999,-99.99,,,-99.99,,2013-01-30 07:42:00,
2013-01-30 01:52:00,68.0,-99.9,29.83,SSE,162,19.0,24.0,-999,-99.99,,,-99.99,,2013-01-30 07:52:00,
2013-01-30 02:02:00,68.0,-99.9,29.82,SSE,163,20.0,23.0,-999,-99.99,,,-99.99,,2013-01-30 08:02:00,
2013-01-30 02:11:00,68.0,-99.9,29.81,SSE,161,19.0,23.0,-999,-99.99,,,-99.99,,2013-01-30 08:11:00,
2013-01-30 02:22:00,68.0,-99.9,29.81,SSE,163,20.0,24.0,-999,-99.99,,,-99.99,,2013-01-30 08:22:00,
2013-01-30 02:32:00,68.0,-99.9,29.81,SSE,163,19.0,23.0,-999,-99.99,,,-99.99,,2013-01-30 08:32:00,
2013-01-30 02:42:00,68.0,-99.9,29.80,SSE,161,19.0,22.0,-999,-99.99,,,-99.99,,2013-01-30 08:42:00,
2013-01-30 02:52:00,68.0,-99.9,29.80,SSE,160,19.0,23.0,-999,-99.99,,,-99.99,,2013-01-30 08:52:00,
2013-01-30 03:02:00,68.0,-99.9,29.79,SSE,157,19.0,23.0,-999,-99.99,,,-99.99,,2013-01-30 09:02:00,
2013-01-30 03:12:00,68.0,-99.9,29.78,SSE,154,21.0,28.0,-999,-99.99,,,-99.99,,2013-01-30 09:12:00,
2013-01-30 03:22:00,68.0,-99.9,29.78,SSE,160,21.0,24.0,-999,-99.99,,,-99.99,,2013-01-30 09:22:00,
2013-01-30 03:32:00,68.0,-99.9,29.78,SSE,161,20.0,25.0,-999,-99.99,,,-99.99,,2013-01-30 09:32:00,
2013-01-30 03:42:00,68.0,-99.9,29.77,SSE,161,21.0,26.0,-999,-99.99,,,-99.99,,2013-01-30 09:42:00,
2013-01-30 03:52:00,69.0,-99.9,29.77,SSE,163,21.0,28.0,-999,-99.99,,,-99.99,,2013-01-30 09:52:00,
2013-01-30 04:02:00,68.0,-99.9,29.76,SSE,161,22.0,26.0,-999,-99.99,,,-99.99,,2013-01-30 10:02:00,
2013-01-30 04:12:00,68.0,-99.9,29.76,SSE,164,20.0,25.0,-999,-99.99,,,-99.99,,2013-01-30 10:12:00,
2013-01-30 04:22:00,68.0,-99.9,29.76,SSE,167,19.0,25.0,-999,-99.99,,,-99.99,,2013-01-30 10:22:00,
2013-01-30 04:32:00,68.0,-99.9,29.76,SSE,166,19.0,23.0,-999,-99.99,,,-99.99,,2013-01-30 10:32:00,
2013-01-30 04:42:00,68.0,-99.9,29.74,SSE,162,20.0,23.0,-999,-99.99,,,-99.99,,2013-01-30 10:42:00,
2013-01-30 04:52:00,69.0,-99.9,29.73,SSE,166,23.0,26.0,-999,-99.99,,,-99.99,,2013-01-30 10:52:00,
2013-01-30 05:02:00,69.0,-99.9,29.74,South,169,21.0,26.0,-999,-99.99,,,-99.99,,2013-01-30 11:02:00,
2013-01-30 05:11:00,68.0,-99.9,29.75,South,173,19.0,21.0,-999,-99.99,,,-99.99,,2013-01-30 11:11:00,
2013-01-30 05:22:00,68.0,-99.9,29.74,South,169,21.0,24.0,-999,-99.99,,,-99.99,,2013-01-30 11:22:00,
2013-01-30 05:33:00,68.0,-99.9,29.74,South,170,20.0,24.0,-999,-99.99,,,-99.99,,2013-01-30 11:33:00,
2013-01-30 05:42:00,68.0,-99.9,29.74,South,171,20.0,24.0,-999,-99.99,,,-99.99,,2013-01-30 11:42:00,
2013-01-30 05:52:00,68.0,-99.9,29.73,SSE,168,22.0,27.0,-999,-99.99,,,-99.99,,2013-01-30 11:52:00,
2013-01-30 06:02:00,68.0,-99.9,29.72,SSE,166,23.0,27.0,-999,-99.99,,,-99.99,,2013-01-30 12:02:00,
2013-01-30 06:13:00,68.0,-99.9,29.72,SSE,167,23.0,29.0,-999,-99.99,,,-99.99,,2013-01-30 12:13:00,
2013-01-30 06:22:00,68.0,-99.9,29.72,SSE,168,23.0,28.0,-999,-99.99,,,-99.99,,2013-01-30 12:22:00,
2013-01-30 06:33:00,68.0,-99.9,29.72,South,169,22.0,28.0,-999,-99.99,,,-99.99,,2013-01-30 12:33:00,
2013-01-30 06:43:00,68.0,-99.9,29.72,South,169,22.0,27.0,-999,-99.99,,,-99.99,,2013-01-30 12:43:00,
2013-01-30 07:03:00,68.0,-99.9,29.71,South,169,24.0,30.0,-999,-99.99,,,-99.99,,2013-01-30 13:03:00,
2013-01-30 07:13:00,68.0,-99.9,29.72,South,169,25.0,29.0,-999,-99.99,,,-99.99,,2013-01-30 13:13:00,
2013-01-30 07:23:00,68.0,-99.9,29.72,South,171,25.0,30.0,-999,-99.99,,,-99.99,,2013-01-30 13:23:00,
2013-01-30 07:33:00,68.0,-99.9,29.72,South,174,24.0,28.0,-999,-99.99,,,-99.99,,2013-01-30 13:33:00,
2013-01-30 07:43:00,68.0,-99.9,29.72,South,171,24.0,30.0,-999,-99.99,,,-99.99,,2013-01-30 13:43:00,
2013-01-30 07:53:00,68.0,-99.9,29.72,South,172,25.0,30.0,-999,-99.99,,,-99.99,,2013-01-30 13:53:00,
2013-01-30 08:03:00,68.0,-99.9,29.72,South,176,23.0,31.0,-999,-99.99,,,-99.99,,2013-01-30 14:03:00,
2013-01-30 08:12:00,68.0,-99.9,29.72,South,178,22.0,27.0,-999,-99.99,,,-99.99,,2013-01-30 14:12:00,
2013-01-30 08:23:00,69.0,-99.9,29.73,South,180,21.0,26.0,-999,-99.99,,,-99.99,,2013-01-30 14:23:00,
2013-01-30 08:33:00,68.0,-99.9,29.73,South,179,21.0,26.0,-999,-99.99,,,-99.99,,2013-01-30 14:33:00,
2013-01-30 08:43:00,68.0,-99.9,29.72,South,178,20.0,26.0,-999,-99.99,,,-99.99,,2013-01-30 14:43:00,
2013-01-30 08:53:00,69.0,-99.9,29.73,South,179,21.0,27.0,-999,-99.99,,,-99.99,,2013-01-30 14:53:00,
2013-01-30 09:03:00,69.0,-99.9,29.73,South,184,21.0,27.0,-999,-99.99,,,-99.99,,2013-01-30 15:03:00,
2013-01-30 09:12:00,69.0,-99.9,29.73,South,180,23.0,28.0,-999,-99.99,,,-99.99,,2013-01-30 15:12:00,
2013-01-30 09:24:00,69.0,-99.9,29.73,South,182,21.0,26.0,-999,-99.99,,,-99.99,,2013-01-30 15:24:00,
2013-01-30 09:33:00,69.0,-99.9,29.72,South,180,23.0,27.0,-999,-99.99,,,-99.99,,2013-01-30 15:33:00,
2013-01-30 09:43:00,69.0,-99.9,29.72,South,180,23.0,28.0,-999,-99.99,,,-99.99,,2013-01-30 15:43:00,
2013-01-30 09:54:00,69.0,-99.9,29.72,South,181,26.0,32.0,-999,-99.99,,,-99.99,,2013-01-30 15:54:00,
2013-01-30 10:03:00,69.0,-99.9,29.72,South,182,24.0,30.0,-999,-99.99,,,-99.99,,2013-01-30 16:03:00,
2013-01-30 10:13:00,69.0,-99.9,29.72,South,185,22.0,31.0,-999,-99.99,,,-99.99,,2013-01-30 16:13:00,
2013-01-30 10:23:00,70.0,-99.9,29.73,South,187,23.0,30.0,-999,-99.99,,,-99.99,,2013-01-30 16:23:00,
2013-01-30 10:33:00,69.0,-99.9,29.73,South,187,22.0,27.0,-999,-99.99,,,-99.99,,2013-01-30 16:33:00,
2013-01-30 10:42:00,69.0,-99.9,29.72,South,187,22.0,28.0,-999,-99.99,,,-99.99,,2013-01-30 16:42:00,
2013-01-30 10:52:00,69.0,-99.9,29.72,South,185,22.0,27.0,-999,-99.99,,,-99.99,,2013-01-30 16:52:00,
2013-01-30 11:03:00,69.0,-99.9,29.72,SSW,208,17.0,27.0,-999,-99.99,,,-99.99,,2013-01-30 17:03:00,
2013-01-30 11:13:00,62.0,-99.9,29.74,WNW,287,22.0,31.0,-999,-99.99,,,-99.99,,2013-01-30 17:13:00,
2013-01-30 11:23:00,62.0,-99.9,29.75,WNW,290,14.0,22.0,-999,-99.99,,,-99.99,,2013-01-30 17:23:00,
2013-01-30 11:34:00,62.0,-99.9,29.76,WNW,289,11.0,16.0,-999,-99.99,,,-99.99,,2013-01-30 17:34:00,
2013-01-30 11:43:00,61.0,-99.9,29.75,WNW,288,15.0,20.0,-999,-99.99,,,-99.99,,2013-01-30 17:43:00,
2013-01-30 11:53:00,60.0,-99.9,29.76,WNW,298,11.0,14.0,-999,-99.99,,,-99.99,,2013-01-30 17:53:00,
2013-01-30 12:03:00,59.0,-99.9,29.77,WNW,296,14.0,17.0,-999,-99.99,,,-99.99,,2013-01-30 18:03:00,
2013-01-30 12:13:00,58.0,-99.9,29.77,WNW,296,9.0,13.0,-999,-99.99,,,-99.99,,2013-01-30 18:13:00,
2013-01-30 12:23:00,58.0,-99.9,29.77,WNW,303,14.0,17.0,-999,-99.99,,,-99.99,,2013-01-30 18:23:00,
2013-01-30 12:33:00,56.0,-99.9,29.77,NW,322,19.0,26.0,-999,-99.99,,,-99.99,,2013-01-30 18:33:00,
2013-01-30 12:43:00,53.0,-99.9,29.78,NW,325,15.0,19.0,-999,-99.99,,,-99.99,,2013-01-30 18:43:00,
2013-01-30 12:53:00,52.0,-99.9,29.78,NW,315,11.0,14.0,-999,-99.99,,,-99.99,,2013-01-30 18:53:00,
2013-01-30 13:03:00,52.0,-99.9,29.77,NW,324,9.0,12.0,-999,-99.99,,,-99.99,,2013-01-30 19:03:00,
2013-01-30 13:13:00,53.0,-99.9,29.78,NW,309,10.0,12.0,-999,-99.99,,,-99.99,,2013-01-30 19:13:00,
2013-01-30 13:22:00,53.0,-99.9,29.78,NW,304,11.0,14.0,-999,-99.99,,,-99.99,,2013-01-30 19:22:00,
2013-01-30 13:33:00,53.0,-99.9,29.78,NW,306,10.0,12.0,-999,-99.99,,,-99.99,,2013-01-30 19:33:00,
2013-01-30 13:43:00,54.0,-99.9,29.78,WNW,292,9.0,12.0,-999,-99.99,,,-99.99,,2013-01-30 19:43:00,
2013-01-30 13:53:00,54.0,-99.9,29.78,WNW,290,8.0,11.0,-999,-99.99,,,-99.99,,2013-01-30 19:53:00,
2013-01-30 14:03:00,55.0,-99.9,29.78,WNW,293,11.0,15.0,-999,-99.99,,,-99.99,,2013-01-30 20:03:00,
2013-01-30 14:12:00,56.0,-99.9,29.76,WNW,297,9.0,13.0,-999,-99.99,,,-99.99,,2013-01-30 20:12:00,
2013-01-30 14:22:00,56.0,-99.9,29.80,West,270,11.0,15.0,-999,-99.99,,,-99.99,,2013-01-30 20:22:00,
2013-01-30 14:33:00,56.0,-99.9,29.80,West,268,9.0,14.0,-999,-99.99,,,-99.99,,2013-01-30 20:33:00,
2013-01-30 14:42:00,58.0,-99.9,29.82,WSW,255,12.0,18.0,-999,-99.99,,,-99.99,,2013-01-30 20:42:00,
2013-01-30 14:53:00,58.0,-99.9,29.77,West,269,12.0,16.0,-999,-99.99,,,-99.99,,2013-01-30 20:53:00,
2013-01-30 15:04:00,59.0,-99.9,29.78,West,277,16.0,21.0,-999,-99.99,,,-99.99,,2013-01-30 21:04:00,
2013-01-30 15:12:00,59.0,-99.9,29.78,West,276,12.0,18.0,-999,-99.99,,,-99.99,,2013-01-30 21:12:00,
2013-01-30 15:23:00,59.0,-99.9,29.79,West,272,14.0,22.0,-999,-99.99,,,-99.99,,2013-01-30 21:23:00,
2013-01-30 15:32:00,59.0,-99.9,29.78,West,276,14.0,19.0,-999,-99.99,,,-99.99,,2013-01-30 21:32:00,
2013-01-30 15:43:00,58.0,-99.9,29.80,West,271,13.0,17.0,-999,-99.99,,,-99.99,,2013-01-30 21:43:00,
2013-01-30 15:53:00,58.0,-99.9,29.79,West,275,16.0,20.0,-999,-99.99,,,-99.99,,2013-01-30 21:53:00,
2013-01-30 16:03:00,58.0,-99.9,29.80,West,271,15.0,20.0,-999,-99.99,,,-99.99,,2013-01-30 22:03:00,
2013-01-30 16:12:00,58.0,-99.9,29.80,West,274,14.0,20.0,-999,-99.99,,,-99.99,,2013-01-30 22:12:00,
2013-01-30 16:23:00,59.0,-99.9,29.80,West,278,17.0,23.0,-999,-99.99,,,-99.99,,2013-01-30 22:23:00,
2013-01-30 16:33:00,59.0,-99.9,29.80,West,278,20.0,26.0,-999,-99.99,,,-99.99,,2013-01-30 22:33:00,
2013-01-30 16:43:00,58.0,-99.9,29.82,West,280,16.0,24.0,-999,-99.99,,,-99.99,,2013-01-30 22:43:00,
2013-01-30 16:53:00,59.0,-99.9,29.83,West,276,17.0,25.0,-999,-99.99,,,-99.99,,2013-01-30 22:53:00,
2013-01-30 17:03:00,58.0,-99.9,29.84,West,280,15.0,20.0,-999,-99.99,,,-99.99,,2013-01-30 23:03:00,
2013-01-30 17:12:00,58.0,-99.9,29.83,WNW,284,16.0,25.0,-999,-99.99,,,-99.99,,2013-01-30 23:12:00,
2013-01-30 17:23:00,59.0,-99.9,29.84,West,278,19.0,26.0,-999,-99.99,,,-99.99,,2013-01-30 23:23:00,
2013-01-30 17:33:00,58.0,-99.9,29.84,West,279,20.0,26.0,-999,-99.99,,,-99.99,,2013-01-30 23:33:00,
2013-01-30 17:43:00,58.0,-99.9,29.85,WNW,283,16.0,23.0,-999,-99.99,,,-99.99,,2013-01-30 23:43:00,
2013-01-30 17:52:00,58.0,-99.9,29.85,WNW,283,18.0,24.0,-999,-99.99,,,-99.99,,2013-01-30 23:52:00,
2013-01-30 18:02:00,57.0,-99.9,29.86,West,280,15.0,20.0,-999,-99.99,,,-99.99,,2013-01-31 00:02:00,
2013-01-30 18:11:00,57.0,-99.9,29.86,West,280,15.0,20.0,-999,-99.99,,,-99.99,,2013-01-31 00:11:00,
2013-01-30 18:22:00,57.0,-99.9,29.86,WNW,288,13.0,18.0,-999,-99.99,,,-99.99,,2013-01-31 00:22:00,
2013-01-30 18:32:00,56.0,-99.9,29.88,WNW,294,10.0,15.0,-999,-99.99,,,-99.99,,2013-01-31 00:32:00,
2013-01-30 18:43:00,56.0,-99.9,29.90,WNW,299,12.0,16.0,-999,-99.99,,,-99.99,,2013-01-31 00:43:00,
2013-01-30 18:53:00,56.0,-99.9,29.91,WNW,296,14.0,21.0,-999,-99.99,,,-99.99,,2013-01-31 00:53:00,
2013-01-30 19:02:00,55.0,-99.9,29.91,WNW,299,14.0,18.0,-999,-99.99,,,-99.99,,2013-01-31 01:02:00,
2013-01-30 19:12:00,55.0,-99.9,29.93,WNW,301,12.0,17.0,-999,-99.99,,,-99.99,,2013-01-31 01:12:00,
2013-01-30 19:22:00,54.0,-99.9,29.93,NW,310,9.0,11.0,-999,-99.99,,,-99.99,,2013-01-31 01:22:00,
2013-01-30 19:32:00,54.0,-99.9,29.93,NW,310,9.0,11.0,-999,-99.99,,,-99.99,,2013-01-31 01:32:00,
2013-01-30 19:42:00,54.0,-99.9,29.94,NW,310,10.0,14.0,-999,-99.99,,,-99.99,,2013-01-31 01:42:00,
2013-01-30 19:53:00,54.0,-99.9,29.96,NW,311,11.0,15.0,-999,-99.99,,,-99.99,,2013-01-31 01:53:00,
2013-01-30 20:02:00,53.0,-99.9,29.96,NW,311,14.0,20.0,-999,-99.99,,,-99.99,,2013-01-31 02:02:00,
2013-01-30 20:12:00,53.0,-99.9,29.97,NW,308,17.0,23.0,-999,-99.99,,,-99.99,,2013-01-31 02:12:00,
2013-01-30 20:22:00,53.0,-99.9,29.98,WNW,299,16.0,21.0,-999,-99.99,,,-99.99,,2013-01-31 02:22:00,
2013-01-30 20:32:00,53.0,-99.9,29.99,NW,305,15.0,19.0,-999,-99.99,,,-99.99,,2013-01-31 02:32:00,
2013-01-30 20:42:00,53.0,-99.9,29.99,NW,305,15.0,19.0,-999,-99.99,,,-99.99,,2013-01-31 02:42:00,
2013-01-30 20:52:00,53.0,-99.9,29.99,NW,305,15.0,19.0,-999,-99.99,,,-99.99,,2013-01-31 02:52:00,
2013-01-30 21:03:00,52.0,-99.9,30.01,NW,316,15.0,22.0,-999,-99.99,,,-99.99,,2013-01-31 03:03:00,
2013-01-30 21:12:00,51.0,-99.9,30.02,NW,323,17.0,24.0,-999,-99.99,,,-99.99,,2013-01-31 03:12:00,
2013-01-30 21:22:00,50.0,-99.9,30.03,NW,322,20.0,30.0,-999,-99.99,,,-99.99,,2013-01-31 03:22:00,
2013-01-30 21:32:00,50.0,-99.9,30.03,NW,318,23.0,28.0,-999,-99.99,,,-99.99,,2013-01-31 03:32:00,
2013-01-30 21:42:00,49.0,-99.9,30.04,NW,323,21.0,28.0,-999,-99.99,,,-99.99,,2013-01-31 03:42:00,
2013-01-30 21:52:00,49.0,-99.9,30.05,NW,318,20.0,29.0,-999,-99.99,,,-99.99,,2013-01-31 03:52:00,
2013-01-30 22:02:00,48.0,-99.9,30.06,NW,316,17.0,23.0,-999,-99.99,,,-99.99,,2013-01-31 04:02:00,
2013-01-30 22:11:00,48.0,-99.9,30.06,NW,323,20.0,28.0,-999,-99.99,,,-99.99,,2013-01-31 04:11:00,
2013-01-30 22:22:00,47.0,-99.9,30.07,NNW,331,27.0,38.0,-999,-99.99,,,-99.99,,2013-01-31 04:22:00,
2013-01-30 22:32:00,47.0,-99.9,30.08,NW,325,25.0,35.0,-999,-99.99,,,-99.99,,2013-01-31 04:32:00,
2013-01-30 22:42:00,47.0,-99.9,30.08,NW,324,19.0,27.0,-999,-99.99,,,-99.99,,2013-01-31 04:42:00,
2013-01-30 22:52:00,46.0,-99.9,30.09,NW,324,16.0,21.0,-999,-99.99,,,-99.99,,2013-01-31 04:52:00,
2013-01-30 23:03:00,46.0,-99.9,30.09,NW,326,18.0,24.0,-999,-99.99,,,-99.99,,2013-01-31 05:03:00,
2013-01-30 23:11:00,46.0,-99.9,30.11,NW,323,16.0,21.0,-999,-99.99,,,-99.99,,2013-01-31 05:11:00,
2013-01-30 23:22:00,46.0,-99.9,30.11,NW,322,16.0,22.0,-999,-99.99,,,-99.99,,2013-01-31 05:22:00,
2013-01-30 23:32:00,46.0,-99.9,30.11,NW,322,16.0,22.0,-999,-99.99,,,-99.99,,2013-01-31 05:32:00,
2013-01-30 23:42:00,46.0,-99.9,30.11,NW,324,17.0,22.0,-999,-99.99,,,-99.99,,2013-01-31 05:42:00,
2013-01-30 23:52:00,46.0,-99.9,30.11,NW,324,17.0,22.0,-999,-99.99,,,-99.99,,2013-01-31 05:52:00,